Regional Weather Roundup
Issued by NWS

Home | Current Version | Previous Version | Text Only | Print | Product List | Glossary On
Versions: 1 2 3 4 5 6 7 8 9 10 11 12 13 14 15 16 17 18 19 20 21 22 23 24 25 26 27 28 29 30 31 32 33 34 35 36 37 38 39 40 41 42 43 44 45 46 47 48 49 50
000
ASUS43 KMPX 131810
RWRMN
WEATHER ROUNDUP FOR MINNESOTA
NATIONAL WEATHER SERVICE TWIN CITIES/CHANHASSEN MN
1200 PM CST SAT FEB 13 2016


NOTE: "FAIR" INDICATES FEW OR NO CLOUDS BELOW 12,000 FEET WITH NO
SIGNIFICANT WEATHER AND/OR OBSTRUCTIONS TO VISIBILITY. N/A MEANS
CURRENT SKY AND/OR WEATHER CONDITIONS ARE NOT AVAILABLE.

MNZ060>063-068>070-131900-
   Twin Cities Metro

CITY           SKY/WX    TMP DP  RH WIND       PRES   REMARKS
TWIN CITIES    SUNNY      6 -10  47 CALM      30.60F
6HR MIN TEMP:  -6; 6HR MAX TEMP:   6;

ST PAUL        SUNNY      5  -8  55 E3        30.63F
CRYSTAL        SUNNY      5 -11  47 CALM      30.59F
BLAINE         MOSUNNY    7  -9  47 CALM      30.59F
LAKEVILLE      SUNNY      1  -9  60 CALM      30.59F
EDEN PRAIRIE   SUNNY      5  -9  52 CALM      30.58F
6HR MIN TEMP:  -9; 6HR MAX TEMP:   5;

SOUTH ST PAUL  SUNNY      6  -9  50 SE3       30.61F
LAKE ELMO      FAIR       5  -9  51 CALM      30.61F
$$
MNZ001>005-007-008-013>017-022>024-027-028-131900-
   Northwest Minnesota

CITY           SKY/WX    TMP DP  RH WIND       PRES   REMARKS
BEMIDJI        CLOUDY     0 -13  54 SE6       30.45F WCI -12
HALLOCK        CLOUDY     0  -9  65 SE16      30.43F WCI -21
ROSEAU         CLOUDY     0 -11  60 SE8       30.47F WCI -15
WARROAD        CLOUDY    -6 -15  65 E3        30.47F
THIEF RVR FALL CLOUDY     0 -18  42 SE12      30.44F WCI -18
CROOKSTON      CLOUDY     0  -9  65 S12       30.47F WCI -18
FOSSTON        CLOUDY     9   0  66 SE5       30.43F WCI   0
DETROIT LAKES  CLOUDY     1  -8  66 SE12      30.43F WCI -15
MOORHEAD       SUNNY      3  -6  66 S15       30.46F WCI -15
PARK RAPIDS    CLOUDY     0 -14  51 SE7       30.45F WCI -13
MAHNOMEN       FAIR       4  -9  54 SE8       30.43F WCI  -9
$$
MNZ006-009>011-018-025>026-131900-
   North Central Minnesota

CITY           SKY/WX    TMP DP  RH WIND       PRES   REMARKS
BAUDETTE       CLOUDY    -3 -17  51 SE6       30.47F WCI -15
FLAG ISLAND    CLOUDY   -13 -18  77 SE10      30.47F WCI -32
INTL FALLS     SUNNY     -1 -16  48 VRB3      30.50F
6HR MIN TEMP: -29; 6HR MAX TEMP:  -1;

WASKISH        CLOUDY    -2 -11  65 CALM      30.47F
LONGVILLE      CLOUDY     1 -15  46 SE5       30.49F WCI  -8
GRAND RAPIDS   SUNNY      0 -11  60 CALM      30.49F
ORR            SUNNY     -2 -18  46 CALM      30.45F
COOK           SUNNY     -2 -18  46 CALM      30.49S
WALKER         FAIR      -2 -15  54 SE5       30.47F WCI -12
$$
MNZ012-019>021-037-131900-
   Northeast Minnesota

CITY           SKY/WX    TMP DP  RH WIND       PRES   REMARKS
DULUTH         SUNNY      1 -14  49 W7        30.47F WCI -12
6HR MIN TEMP: -17; 6HR MAX TEMP:   1;

ELY            SUNNY     -2 -15  55 CALM      30.46S
HIBBING        SUNNY     -1 -16  48 N5        30.48F WCI -11
EVELETH        SUNNY      0 -17  46 W3        30.49S
DULUTH HARBOR  SUNNY      1 -15  46 SW12      30.59F WCI -15
TWO HARBORS    SUNNY      9 -11  40 W6        30.48F WCI  -1
SILVER BAY       N/A      7 -13  40 SE3       30.47F
GRAND MARAIS     N/A      6 -12  43 VRB3      30.53F
G MARAIS ARPRT SUNNY      0 -18  42 NW3       30.39S
$$
MNZ029>031-032-039>041-046>048-054>057-064-131900-
   West Central Minnesota

CITY           SKY/WX    TMP DP  RH WIND       PRES   REMARKS
FERGUS FALLS   SUNNY      5  -8  56 SE15      30.50F WCI -13
WHEATON        CLOUDY     7   0  72 SE18      30.47F WCI -12
MORRIS         MOSUNNY    7  -2  66 SE18      30.47F WCI -12
ALEXANDRIA     CLOUDY     2 -10  57 SE12      30.47F WCI -15
ELBOW LAKE     FAIR       4  -5  65 E15       30.47F WCI -14
WADENA         CLOUDY     1  -9  60 SE8       30.46F WCI -12
GLENWOOD       SUNNY      3  -8  60 SE8       30.49F WCI -10
APPLETON       CLOUDY     3  -6  66 SE14      30.49F WCI -15
BENSON         CLOUDY     9  -4  56 S12       30.50F WCI  -6
ORTONVILLE     CLOUDY     3  -6  66 SE17      30.45F WCI -17
MADISON        CLOUDY     7  -2  66 SE15      30.48F WCI -11
WILLMAR        FAIR       9  -2  61 SE10      30.53F WCI  -6
$$
MNZ033>034-036-042>043-049>051-058-059-131900-
   Central Minnesota

CITY           SKY/WX    TMP DP  RH WIND       PRES   REMARKS
ST CLOUD       SUNNY      1 -11  57 SE8       30.56F WCI -13
6HR MIN TEMP: -14; 6HR MAX TEMP:   1;

SAUK CENTRE    FAIR       1  -9  64 E6        30.51F WCI -11
PAYNESVILLE    SUNNY      5  -8  56 SE8       30.53F WCI  -8
AITKIN         SUNNY      1 -18  39 CALM      30.51F
PINE RIVER     SUNNY     -2 -13  60 SE5       30.52F WCI -12
BRAINERD       SUNNY      0 -13  54 SW6       30.52F WCI -12
STAPLES        SUNNY      1 -13  51 S8        30.49F WCI -12
LONG PRAIRIE   FAIR       0 -13  55 E6        30.50F WCI -12
LITTLE FALLS   SUNNY      1 -13  51 E5        30.54F WCI  -8
LITCHFIELD     SUNNY      5  -8  56 SE6       30.55F WCI  -6
BUFFALO        SUNNY      4 -10  51 E5        30.58F WCI  -6
MAPLE LAKE     SUNNY      6  -8  54 SE5       30.57F WCI  -3
$$
MNZ037-044-045-052-053-131900-
   East Central Minnesota

CITY           SKY/WX    TMP DP  RH WIND       PRES   REMARKS
PRINCETON      SUNNY      5 -11  47 CALM      30.57F
MORA           SUNNY      5  -9  51 CALM      30.59F
CAMBRIDGE      SUNNY      3  -9  55 CALM      30.57F
MOOSE LAKE     SUNNY      1 -17  42 CALM      30.53F
HINCKLEY       FAIR       1 -11  55 CALM      30.57F
CLOQUET        SUNNY      3 -18  36 CALM      30.50F
MCGREGOR       SUNNY      0 -13  55 CALM      30.53F
$$
MNZ071>073-080-081-089-090-097-098-131900-
   Southwest Minnesota

CITY           SKY/WX    TMP DP  RH WIND       PRES   REMARKS
MONTEVIDEO     CLOUDY     7  -2  66 S13       30.52F WCI  -9
GRANITE FALLS  CLOUDY     7  -1  70 SE12      30.53F WCI  -9
CANBY          CLOUDY    10   2  71 E15       30.47F WCI  -7
MARSHALL       CLOUDY     7  -3  64 S18       30.48F WCI -12
REDWOOD FALLS  CLOUDY     3  -4  72 SE14      30.54F WCI -15
OLIVIA         SUNNY      9  -4  56 SE12      30.53F WCI  -6
PIPESTONE      CLOUDY     7  -8  51 S13       30.41F WCI  -9
WINDOM         CLOUDY     5  -4  66 SE9       30.49F WCI  -9
WORTHINGTON    CLOUDY     3  -6  66 S12       30.47F WCI -13
JACKSON        CLOUDY     7  -6  56 SE9       30.49F WCI  -7
TRACY          CLOUDY     6  -2  70 SE13      30.47F WCI -10
SLAYTON        CLOUDY     4  -3  72 SE15      30.45F WCI -14
$$
MNZ065>067-074>077-082>085-091>093-131900-
   South Central Minnesota

CITY           SKY/WX    TMP DP  RH WIND       PRES   REMARKS
MANKATO        SUNNY      3  -8  60 S8        30.57F WCI -10
NEW ULM        SUNNY      1  -8  66 S8        30.56F WCI -12
ST JAMES       MOSUNNY    3  -2  78 SE8       30.56F WCI -10
FAIRMONT       CLOUDY     3  -6  66 S10       30.53F WCI -12
GLENCOE        SUNNY      6  -4  62 S3        30.57F
FARIBAULT      SUNNY      3  -9  55 S2        30.58F
OWATONNA       SUNNY      5  -9  51 CALM      30.56F
WASECA         CLOUDY     5  -6  61 S6        30.58F WCI  -6
ALBERT LEA     CLOUDY     3  -8  60 S3        30.54F
$$
MNZ078>079-086>088-094>096-131900-
   Southeast Minnesota

CITY           SKY/WX    TMP DP  RH WIND       PRES   REMARKS
ROCHESTER      SUNNY      0  -9  65 CALM      30.55F
6HR MIN TEMP: -11; 6HR MAX TEMP:   0;

RED WING       SUNNY      5 -15  39 CALM      30.62F
STANTON        SUNNY      2 -10  57 CALM      30.59F
DODGE CENTER   SUNNY      9  -9  43 SE3       30.55F
WINONA         SUNNY     10  -8  44 CALM      30.64F
AUSTIN         CLOUDY     1  -9  60 S5        30.56F WCI  -8
PRESTON        SUNNY      1 -13  53 CALM      30.56F
$$
ABBREVIATIONS USED IN REMARKS
   TC - TEMPERATURES IN CELSIUS
  WCI - WIND CHILL INDEX
   HX - HEAT INDEX
  VSB - VISIBILITY
$$



USA.gov is the U.S. government's official web portal to all federal, state and local government web resources and services.